Wind_Speed
20 17 15 17 18 17 15 14 13 12 13 15 18 20 20 21 21 22 22 24 24 22 19 16 14 14 14 15 15 14 13 13 13 13 13 11 9 8 8 8 7 7 6 5 4 4 5 5 4 3 4 4 4 4 4 4 4 5 6 7 7 6 5
19 19 20 20 20 19 17 15 13 12 13 16 18 19 20 20 21 22 22 23 23 22 21 19 17 15 15 15 15 14 13 13 13 14 13 11 10 9 9 9 8 7 6 6 6 6 6 6 5 4 4 5 5 5 5 5 5 5 6 7 7 7 7
17 17 19 19 19 19 18 16 14 12 13 17 18 18 20 22 22 22 22 23 23 21 20 19 18 17 16 15 14 13 13 13 13 13 12 11 10 9 9 9 9 8 8 8 8 8 8 8 8 7 7 7 7 7 7 6 6 6 6 6 7 7 8
17 17 17 17 19 20 20 19 17 14 15 17 18 19 21 23 23 22 22 23 22 20 19 17 17 17 17 16 15 14 13 13 13 13 12 11 10 9 9 9 9 9 9 9 9 9 9 9 10 10 10 10 10 10 10 9 9 8 7 7 7 7 8
20 20 19 18 19 20 21 21 18 16 16 18 18 19 20 22 23 22 22 22 21 20 18 17 16 16 17 16 15 14 14 13 13 12 11 11 10 9 9 9 9 9 9 8 8 9 9 10 10 11 11 11 11 11 12 12 11 11 10 9 9 8 9
24 21 20 19 19 21 22 20 18 17 17 19 20 19 19 21 22 22 22 22 21 19 17 16 15 15 14 14 14 14 14 13 12 12 12 11 11 10 10 11 10 9 9 9 9 9 9 10 10 11 12 12 12 12 13 13 13 13 12 11 11 11 10
24 19 19 19 18 20 21 19 18 19 19 20 21 19 17 19 20 20 21 22 20 18 17 15 15 14 14 13 13 13 13 12 12 13 13 12 12 12 11 11 10 10 10 9 9 9 9 10 10 10 11 12 12 13 13 14 14 14 14 13 13 13 12
24 20 20 20 19 19 19 18 19 20 19 18 17 17 17 18 18 18 20 21 19 17 16 16 16 16 16 15 14 14 13 13 13 14 14 14 13 12 11 10 10 10 9 9 9 8 8 9 9 9 9 10 11 12 13 14 15 16 16 15 14 14 14
24 21 21 21 21 22 20 19 19 17 15 14 15 16 17 17 16 17 20 20 19 17 17 17 17 16 16 15 14 14 14 13 13 13 13 13 12 12 11 10 9 8 8 8 8 8 8 8 8 8 8 9 10 11 13 14 14 15 16 16 15 15 14
27 23 20 19 21 24 23 21 18 14 14 14 16 17 17 16 15 16 18 19 18 18 17 17 17 17 16 15 14 14 14 13 12 12 11 11 11 10 9 9 8 8 8 8 8 8 8 7 7 7 8 9 10 10 12 13 12 13 13 14 15 14 14
28 24 21 21 22 24 25 22 17 14 15 17 16 16 15 15 15 15 16 18 18 18 17 17 16 16 16 15 14 14 13 12 11 11 10 9 9 8 8 8 8 8 8 8 8 8 8 7 7 7 7 9 9 9 9 10 10 10 11 12 12 13 13
25 22 21 20 19 22 23 22 19 17 18 19 19 17 16 15 15 15 17 18 18 17 17 16 15 15 15 15 14 14 13 12 11 10 9 8 8 8 8 8 8 8 8 9 9 9 8 8 8 7 6 7 7 7 7 7 7 8 9 9 10 11 11
20 18 17 15 17 20 20 20 19 18 18 20 20 18 17 16 15 17 18 18 18 17 16 16 15 15 14 14 14 14 13 12 11 10 9 8 8 8 9 9 9 9 9 10 10 10 9 9 8 7 6 5 5 6 5 5 5 6 7 7 7 8 8
21 21 18 13 17 18 18 19 19 17 17 18 20 19 17 16 15 17 18 17 17 17 16 15 15 14 14 15 14 14 14 13 13 11 10 10 10 10 10 10 10 10 10 10 10 10 10 10 8 7 6 5 4 5 5 4 4 4 5 5 5 6 7
24 23 19 13 12 13 15 17 19 19 17 17 19 19 17 16 16 17 17 16 16 16 16 15 13 12 12 13 13 13 15 15 14 13 12 12 12 12 12 12 13 12 11 11 10 10 10 10 9 7 7 6 5 5 4 4 4 3 4 4 4 5 7
24 22 19 14 11 12 14 15 17 19 19 18 20 19 18 18 18 18 16 16 15 14 14 13 11 9 8 8 10 12 14 15 15 15 15 15 14 14 14 15 15 14 12 11 11 11 10 10 9 8 8 7 6 5 4 4 4 4 4 4 5 5 6
25 22 20 18 14 13 14 15 16 17 17 19 20 21 21 21 21 20 18 17 16 14 12 10 8 7 6 7 9 10 11 13 14 16 17 17 17 16 17 18 17 15 13 12 12 12 11 11 10 9 8 7 6 5 5 4 4 4 5 6 7 6 6
26 22 21 22 19 17 17 17 18 18 18 20 22 23 25 24 23 21 19 17 16 14 12 10 8 8 8 8 8 9 11 12 14 15 17 17 18 18 19 19 18 16 14 13 13 14 13 12 11 10 9 8 7 6 6 6 6 6 7 9 9 9 7
29 29 28 27 23 19 18 20 22 23 22 22 23 24 24 23 21 20 18 17 16 15 13 11 10 9 9 9 9 8 9 12 13 15 16 17 18 19 20 20 19 16 15 14 15 14 14 13 12 10 10 9 8 7 7 7 7 8 9 10 11 12 10
28 31 30 27 22 18 18 19 21 23 24 23 24 24 23 21 20 19 18 17 16 15 13 11 10 10 10 10 10 9 9 11 12 14 14 15 17 19 19 20 19 17 16 16 15 13 13 14 13 11 10 9 10 9 8 8 8 9 11 11 12 12 11
27 29 26 22 22 22 20 17 16 17 19 21 24 24 24 22 21 19 18 16 15 14 13 12 12 12 12 12 12 12 11 11 12 14 14 15 16 17 17 18 18 17 17 16 15 14 15 15 14 12 10 9 10 10 10 10 11 11 12 12 12 13 12
26 26 24 20 21 22 22 19 17 15 15 17 19 21 22 21 20 19 17 16 15 15 14 14 14 14 14 15 15 15 15 14 13 14 14 15 15 15 16 17 17 17 17 16 16 16 15 13 12 12 12 11 10 10 9 11 12 12 12 12 12 13 14
24 24 23 22 21 20 21 20 18 17 16 17 18 19 20 20 19 18 17 16 15 15 16 16 17 17 18 18 17 17 18 18 16 14 14 16 16 15 16 16 16 17 18 17 17 15 14 13 13 13 13 13 11 9 9 10 11 12 12 11 11 13 13
25 25 25 24 22 20 20 20 19 18 17 17 17 18 19 20 20 19 18 17 16 16 16 16 18 20 21 21 20 20 19 20 19 17 15 16 17 17 17 17 17 18 18 17 16 15 14 14 14 13 13 12 11 11 10 10 11 12 12 12 13 14 15
27 27 26 25 23 21 20 20 20 19 17 17 18 19 20 20 20 20 20 20 20 20 19 18 19 22 24 25 24 23 22 22 20 18 15 15 16 16 17 17 17 17 17 17 16 15 14 13 13 12 12 12 12 12 12 11 12 13 13 14 15 17 18
29 28 27 26 25 23 22 21 21 20 19 19 20 20 21 20 19 20 20 21 22 22 22 21 22 24 26 27 27 25 25 24 22 19 17 15 15 15 15 16 17 17 17 17 17 16 15 14 13 12 12 12 13 13 12 12 13 14 14 15 17 19 21
31 29 29 29 27 25 23 23 23 23 22 21 20 21 21 20 19 19 19 19 20 22 23 24 25 26 27 28 29 28 27 27 25 22 20 18 18 18 17 17 17 18 17 18 18 17 16 15 14 13 13 13 13 13 13 13 14 15 16 18 20 22 24
32 31 31 30 29 26 24 23 24 25 23 22 21 22 21 21 20 19 18 18 18 19 22 24 25 26 27 28 29 29 29 29 28 25 23 22 21 21 21 20 20 20 19 19 19 18 17 16 16 15 14 14 14 14 15 16 17 18 19 21 22 24 26
35 34 34 32 30 28 26 25 25 25 24 23 22 22 22 22 21 20 18 18 17 18 20 21 23 24 25 26 27 28 29 30 30 28 26 25 25 24 24 24 23 23 22 22 21 20 18 17 17 16 16 16 17 17 18 19 20 21 23 25 26 27 29
38 38 37 35 32 30 29 28 26 25 24 24 24 24 24 24 23 22 21 19 19 19 20 20 21 22 23 24 25 26 28 29 29 29 28 28 28 28 26 26 26 26 26 25 24 22 21 20 20 19 19 20 20 21 22 23 24 26 28 29 31 31 32
43 42 41 38 36 33 32 30 29 27 26 25 25 26 25 25 25 24 23 22 22 22 22 22 22 21 22 24 24 25 26 28 28 29 29 29 30 30 30 29 28 28 28 28 27 26 25 24 24 24 23 24 24 24 26 27 29 31 33 34 33 33 34
47 46 44 42 39 37 35 34 32 30 29 28 28 28 27 27 26 25 25 25 24 24 24 25 24 23 23 24 24 25 26 27 28 28 28 29 30 31 32 32 31 30 30 30 29 29 28 28 28 28 28 28 28 28 30 32 34 36 36 35 34 35 36
48 49 47 45 43 41 39 38 36 33 32 32 31 31 31 29 28 27 27 27 27 27 27 28 28 27 26 26 26 26 27 27 28 27 28 28 29 30 31 32 32 32 32 32 32 31 31 31 31 32 32 32 32 32 33 35 36 37 38 37 37 38 39
48 50 50 48 46 45 44 42 40 38 36 36 35 35 34 33 32 30 30 30 29 29 30 31 30 29 28 28 29 28 28 29 29 28 28 29 29 30 31 32 32 33 33 33 33 33 33 33 34 34 35 35 34 35 35 37 38 39 40 41 41 42 43
47 49 50 49 48 47 47 45 43 42 40 39 38 37 37 36 35 33 33 32 32 31 31 32 32 31 31 31 31 31 31 31 31 30 30 30 30 31 32 32 33 33 33 34 34 34 35 35 36 36 37 37 37 37 38 40 41 41 42 44 44 45 46
47 47 48 48 47 47 47 47 46 44 43 41 41 40 40 39 38 36 35 34 33 33 33 33 33 33 33 33 33 33 33 33 33 33 32 32 32 32 33 33 34 34 34 34 34 35 36 37 38 38 39 39 40 41 41 42 43 44 45 46 47 48 49
48 48 48 48 48 48 48 47 47 46 44 44 43 42 42 41 40 39 37 36 36 36 35 35 35 35 35 35 35 34 34 34 34 34 34 34 34 34 34 35 35 35 35 36 36 37 38 39 40 40 40 41 42 43 44 44 45 46 47 48 49 50 51
48 48 49 49 49 49 48 48 47 46 45 45 45 45 44 43 42 41 40 39 39 39 39 39 38 38 37 36 36 36 36 36 36 36 35 35 36 36 37 37 37 37 37 38 38 38 39 40 41 42 42 43 44 45 45 46 47 48 49 50 51 52 54
Wind_Direction
183 191 223 235 239 240 238 239 236 231 230 228 224 219 214 209 206 205 206 207 206 202 199 200 204 205 207 212 214 212 210 210 208 207 208 210 210 205 198 197 198 197 203 212 212 203 208 225 245 262 271 291 312 322 330 336 341 346 347 352 360 2 360
207 214 230 234 237 235 233 236 232 226 228 229 225 221 218 213 209 207 206 207 207 203 198 195 195 199 203 209 213 209 203 202 205 206 207 209 209 203 195 196 200 200 200 207 214 215 221 237 254 270 276 283 299 309 317 324 324 326 330 336 345 350 352
223 217 224 230 231 226 225 230 228 226 230 230 228 225 221 216 213 211 209 209 208 205 201 199 197 197 200 205 208 204 197 196 200 203 206 208 205 198 192 195 201 203 205 208 215 225 233 243 253 263 271 274 280 288 293 297 301 304 311 317 326 335 339
216 206 220 226 220 215 216 221 221 222 227 227 227 227 224 218 214 214 214 213 210 205 200 199 199 199 200 201 200 196 192 192 196 199 205 207 202 197 197 201 206 209 213 216 219 228 236 244 251 257 264 269 272 278 282 282 282 285 291 297 304 312 319
221 212 224 226 217 214 214 215 215 218 225 227 224 225 226 220 215 216 218 216 211 205 199 195 194 197 199 198 194 190 188 190 194 199 206 208 207 206 209 214 218 221 225 228 229 232 239 245 253 258 262 266 271 275 279 280 280 279 280 283 288 293 299
232 223 232 231 220 215 212 209 211 216 225 230 226 225 228 225 219 217 220 218 209 203 197 191 189 191 194 194 191 188 188 190 193 199 205 210 212 216 220 223 227 232 235 237 241 244 249 254 258 264 269 271 272 273 276 279 280 279 278 278 279 283 286
236 230 233 225 209 210 208 201 206 215 221 225 225 224 229 232 227 222 223 220 210 199 190 185 182 182 184 187 189 190 191 193 195 199 204 208 213 217 221 224 228 235 239 243 249 254 260 264 265 267 270 273 274 275 275 276 277 277 276 275 275 277 280
233 224 219 204 193 202 205 199 206 215 219 220 220 219 225 232 232 228 226 222 212 198 186 181 179 179 182 185 189 193 196 198 199 201 206 209 213 216 219 225 231 238 244 249 253 259 265 269 268 265 265 268 273 275 275 274 274 273 274 274 274 274 277
229 219 205 193 190 199 205 207 210 210 212 213 212 211 213 220 228 230 227 222 214 200 188 183 181 182 185 188 192 197 201 205 206 209 213 214 216 219 223 232 240 246 252 254 258 264 267 266 265 265 265 266 269 273 276 276 275 275 275 276 276 276 277
227 224 215 209 203 200 207 214 213 205 201 204 208 208 205 209 220 229 226 220 214 204 193 188 186 186 188 192 196 200 203 207 210 213 217 218 220 226 233 243 255 259 258 258 262 265 267 266 262 262 267 272 274 275 277 279 280 280 279 279 281 281 281
229 232 230 227 214 202 206 214 212 204 199 198 200 202 201 204 215 229 228 218 213 208 200 194 192 191 193 196 198 201 204 207 210 212 216 219 223 231 241 252 260 261 258 257 260 263 269 272 268 267 272 277 281 280 276 279 282 282 282 282 283 285 285
229 231 233 231 214 200 204 210 210 207 202 196 194 197 202 209 218 231 231 219 213 212 206 200 198 197 198 199 199 201 203 204 206 210 213 219 226 234 244 251 251 251 251 252 257 262 267 270 273 279 279 277 279 278 274 273 275 278 281 283 286 290 292
229 234 240 220 183 176 186 196 204 209 206 199 195 198 207 214 222 229 227 218 213 213 210 206 204 202 201 201 200 200 201 202 205 208 211 218 229 236 242 244 244 243 246 249 255 261 266 271 278 284 282 274 269 268 265 261 261 268 278 286 293 300 307
220 231 239 211 176 173 184 196 205 210 210 205 200 200 206 212 220 224 222 217 213 212 213 214 210 206 204 202 202 202 204 206 208 212 218 225 234 241 242 243 243 243 245 250 256 262 269 276 281 281 277 268 256 255 256 255 260 270 281 294 308 319 329
215 225 232 221 191 179 184 194 202 208 212 210 203 199 200 205 213 218 217 216 214 211 214 219 218 215 213 209 207 208 211 215 215 218 225 232 238 245 247 246 246 247 250 256 261 265 271 276 279 274 265 256 245 244 250 256 265 279 288 302 316 327 338
216 223 227 227 210 193 190 190 197 207 211 209 202 196 195 200 207 213 213 212 215 214 214 219 222 222 223 224 223 221 222 224 225 226 230 235 240 247 251 252 251 251 254 261 266 266 268 271 272 266 257 252 244 239 244 252 257 269 282 297 310 320 334
217 221 225 229 226 220 216 206 205 213 214 209 202 196 195 200 206 210 210 208 211 215 215 218 222 225 227 232 240 244 243 242 242 241 242 243 246 250 253 254 254 253 254 261 266 265 263 265 267 262 255 251 248 247 252 257 264 281 295 306 315 323 336
207 209 217 226 227 225 218 207 207 213 214 213 209 202 200 202 206 209 208 204 205 211 214 215 218 225 231 234 243 257 264 261 258 256 256 256 255 254 253 251 251 251 252 257 262 261 261 262 262 259 255 251 249 250 257 269 283 299 308 313 318 320 331
204 203 210 218 222 220 210 202 204 208 211 215 215 211 208 206 208 210 207 203 204 207 211 214 215 223 232 237 240 250 266 270 267 263 261 260 258 255 251 248 246 246 248 249 253 257 263 263 257 252 251 252 252 251 254 265 281 295 303 308 311 312 319
221 216 218 222 223 222 216 210 209 210 211 214 215 215 216 215 216 216 213 210 210 210 213 218 224 232 240 249 253 256 265 273 275 269 261 257 254 250 247 243 240 239 242 245 248 252 257 258 252 244 239 239 246 252 258 265 274 283 292 298 301 302 305
236 231 233 235 230 230 230 226 221 217 215 216 216 216 218 221 222 221 219 217 216 217 223 228 234 240 245 254 263 268 270 275 280 276 264 255 251 245 240 237 236 237 239 242 245 246 244 246 248 248 243 234 232 237 243 253 263 273 282 289 293 294 297
240 239 241 241 236 234 236 235 231 228 226 226 225 223 223 224 226 226 226 227 227 229 232 236 241 244 247 253 262 271 276 279 282 281 267 253 247 242 235 232 233 235 237 238 240 241 239 239 241 242 242 238 231 224 226 237 248 257 266 273 279 285 292
240 242 240 239 235 234 235 236 232 226 224 226 226 226 227 229 230 231 233 234 234 236 237 240 245 247 249 253 258 264 273 278 282 282 266 248 241 237 232 230 230 233 237 238 238 238 237 237 235 232 231 234 234 231 229 234 242 248 255 263 272 278 284
235 239 240 238 234 230 229 230 229 223 218 221 224 226 229 231 234 237 239 240 241 242 241 242 246 248 250 253 254 257 264 271 277 280 265 244 237 236 232 232 233 234 238 238 237 236 235 233 232 230 227 227 230 232 233 238 246 251 255 262 269 273 276
230 233 236 238 235 231 227 229 230 225 221 226 231 232 232 232 235 238 241 244 245 246 244 242 244 246 247 249 251 251 255 262 269 274 265 242 235 236 235 234 234 233 234 235 235 236 236 234 233 230 227 226 226 230 235 241 250 257 261 264 268 271 274
227 228 231 234 233 229 226 229 230 227 225 226 229 232 235 236 237 238 239 241 242 243 244 242 241 240 241 244 247 248 251 256 261 265 262 246 236 233 231 231 232 230 231 233 235 237 237 237 236 233 231 231 231 235 241 244 248 254 260 264 268 272 274
226 226 228 231 231 228 225 227 230 230 227 223 222 229 235 237 239 239 237 237 237 238 240 240 237 235 233 237 242 245 248 253 256 258 256 249 243 239 233 231 233 234 236 238 240 242 242 243 243 240 239 241 243 246 250 250 251 254 260 266 271 275 277
226 227 229 230 230 229 225 224 227 228 227 225 224 226 228 230 234 236 233 232 232 232 233 233 232 231 229 230 234 238 242 248 254 254 251 248 246 245 242 239 237 238 241 243 245 247 248 250 253 253 252 251 251 253 254 256 258 261 264 268 271 273 276
225 228 230 229 227 227 225 223 225 226 226 227 227 225 223 224 227 228 228 229 231 230 230 227 226 227 227 227 229 231 235 242 248 250 248 246 245 245 246 247 246 245 245 246 247 248 248 250 254 255 255 255 255 256 257 258 260 262 264 266 268 269 272
223 225 229 228 226 225 224 223 224 227 228 229 229 227 224 222 222 223 225 228 230 231 231 228 225 224 225 227 228 228 230 235 240 242 243 243 242 240 242 247 249 250 250 249 249 248 246 247 250 252 254 257 258 259 260 260 261 263 264 265 267 269 272
219 222 225 226 226 226 224 222 224 227 229 229 230 230 227 224 224 225 225 226 227 228 231 232 230 226 225 227 229 230 231 233 235 237 238 239 239 238 238 241 245 249 252 252 251 249 247 248 250 251 253 255 258 261 262 263 263 264 265 266 269 273 277
218 221 223 224 227 229 228 226 226 229 231 232 232 232 231 229 228 227 227 226 227 229 233 235 235 233 231 230 231 233 234 235 236 238 238 239 239 239 239 240 242 245 249 251 252 252 252 252 253 254 254 255 256 258 260 263 265 268 271 274 278 281 283
220 221 224 227 229 232 233 232 231 233 235 235 234 234 234 233 231 230 229 229 229 230 235 238 239 238 237 235 234 235 236 238 239 240 240 241 242 242 242 243 244 245 247 249 252 254 255 256 257 258 258 259 259 261 264 267 271 275 278 281 282 283 284
221 222 225 227 230 232 235 236 237 237 238 238 236 234 234 234 233 231 231 232 232 233 236 239 241 241 240 240 239 239 239 241 242 242 242 243 244 244 245 246 247 247 249 251 253 255 257 259 260 261 263 264 266 268 270 272 274 277 279 281 282 283 284
222 222 224 225 227 230 233 235 238 239 239 239 238 237 236 235 234 233 233 234 234 235 237 240 243 243 242 241 241 241 242 243 244 245 245 245 245 245 246 248 249 251 252 254 256 258 259 260 261 263 265 267 268 269 270 272 274 277 279 281 282 284 285
224 223 223 223 224 227 230 232 235 237 238 239 240 240 239 239 237 236 236 237 238 239 240 241 243 244 244 244 244 244 244 245 246 247 248 248 248 248 249 251 252 253 255 255 256 258 259 260 261 262 264 265 267 269 271 273 275 277 279 281 282 283 284
228 226 225 224 223 225 227 229 231 233 236 238 240 241 242 242 242 242 242 243 244 245 245 245 245 245 246 246 246 247 247 247 248 249 249 250 251 251 252 253 254 255 256 256 257 258 259 260 261 263 264 265 267 269 271 273 275 277 279 280 281 282 283
231 229 227 226 224 224 225 227 229 232 234 237 239 241 243 244 245 246 247 248 248 248 248 247 247 247 247 246 247 248 248 249 250 250 250 251 251 252 253 254 255 257 258 259 260 260 261 262 263 264 266 267 268 270 271 273 275 276 278 279 280 281 282
Height
5876 5878 5879 5881 5882 5883 5885 5886 5887 5889 5891 5893 5894 5896 5898 5900 5901 5903 5905 5908 5909 5911 5912 5914 5916 5918 5921 5923 5926 5928 5930 5932 5935 5936 5938 5940 5942 5944 5945 5947 5948 5949 5949 5950 5951 5952 5952 5952 5952 5953 5953 5953 5953 5953 5954 5954 5954 5953 5953 5953 5953 5953 5953
5873 5875 5877 5879 5880 5882 5884 5885 5886 5887 5889 5891 5893 5895 5897 5899 5901 5902 5904 5907 5908 5909 5910 5912 5914 5916 5919 5921 5924 5927 5929 5931 5933 5935 5937 5939 5941 5943 5944 5946 5947 5948 5949 5950 5950 5951 5951 5951 5952 5952 5952 5952 5953 5953 5953 5953 5953 5953 5953 5952 5952 5952 5952
5869 5872 5874 5877 5879 5881 5882 5883 5884 5886 5888 5890 5892 5893 5896 5898 5899 5901 5903 5905 5907 5908 5909 5910 5912 5914 5916 5919 5922 5925 5928 5930 5932 5934 5936 5938 5940 5942 5944 5945 5946 5947 5948 5949 5950 5950 5950 5951 5951 5951 5951 5951 5952 5952 5952 5952 5952 5952 5953 5952 5952 5952 5952
5867 5870 5873 5875 5877 5879 5880 5881 5883 5884 5886 5888 5890 5891 5893 5895 5897 5900 5902 5905 5906 5907 5907 5908 5910 5912 5915 5918 5921 5924 5926 5929 5931 5933 5935 5937 5939 5941 5942 5944 5945 5946 5947 5948 5949 5949 5950 5950 5950 5950 5950 5950 5950 5951 5951 5951 5951 5951 5952 5952 5952 5952 5951
5864 5867 5870 5872 5874 5876 5878 5879 5881 5883 5885 5887 5888 5890 5891 5893 5896 5898 5901 5904 5905 5905 5905 5906 5908 5911 5913 5916 5919 5922 5925 5927 5930 5932 5934 5936 5937 5939 5941 5942 5943 5944 5945 5946 5947 5948 5948 5948 5949 5949 5949 5949 5949 5949 5949 5949 5950 5950 5950 5951 5951 5951 5951
5860 5864 5867 5869 5872 5873 5875 5877 5879 5882 5884 5885 5887 5888 5891 5893 5895 5897 5900 5903 5904 5904 5904 5905 5906 5909 5912 5915 5918 5920 5923 5926 5928 5931 5932 5934 5936 5937 5939 5940 5941 5943 5944 5945 5945 5946 5947 5947 5947 5947 5947 5948 5948 5948 5948 5948 5948 5948 5949 5949 5949 5950 5950
5858 5862 5865 5868 5870 5871 5873 5875 5877 5879 5882 5883 5886 5888 5891 5893 5895 5897 5900 5903 5904 5903 5902 5903 5905 5908 5911 5914 5916 5919 5922 5925 5927 5929 5931 5932 5934 5935 5937 5938 5940 5941 5942 5943 5944 5945 5945 5946 5946 5946 5946 5946 5946 5946 5946 5946 5946 5946 5947 5947 5948 5948 5948
5856 5860 5863 5867 5869 5870 5872 5874 5875 5877 5880 5882 5885 5887 5889 5892 5894 5897 5900 5902 5903 5902 5901 5901 5903 5906 5909 5912 5915 5918 5920 5923 5925 5927 5929 5931 5932 5934 5935 5937 5938 5939 5941 5942 5942 5943 5944 5944 5945 5945 5945 5945 5944 5944 5944 5944 5944 5944 5945 5945 5946 5947 5947
5854 5857 5862 5866 5868 5869 5871 5872 5874 5876 5878 5881 5883 5885 5887 5889 5892 5896 5899 5901 5902 5902 5900 5900 5902 5904 5907 5910 5913 5916 5919 5921 5924 5926 5928 5929 5931 5932 5934 5935 5936 5938 5939 5940 5941 5941 5942 5942 5943 5943 5943 5943 5943 5943 5943 5943 5943 5943 5943 5943 5944 5945 5945
5851 5854 5859 5863 5866 5867 5869 5870 5872 5875 5877 5878 5880 5882 5885 5887 5890 5894 5897 5900 5901 5900 5899 5899 5901 5903 5906 5909 5912 5914 5917 5920 5922 5924 5926 5928 5929 5931 5932 5934 5935 5936 5937 5938 5939 5939 5940 5941 5941 5941 5941 5941 5941 5941 5941 5941 5941 5941 5941 5942 5942 5943 5943
5849 5852 5856 5860 5862 5865 5867 5869 5872 5874 5875 5877 5879 5881 5884 5886 5889 5892 5895 5897 5898 5899 5899 5899 5900 5902 5904 5907 5910 5913 5916 5918 5920 5922 5924 5926 5928 5929 5931 5932 5933 5934 5935 5936 5937 5937 5938 5939 5939 5939 5940 5939 5939 5940 5940 5940 5939 5939 5940 5940 5940 5940 5941
5847 5850 5853 5856 5860 5863 5865 5867 5870 5873 5874 5876 5878 5880 5883 5885 5887 5889 5892 5894 5896 5897 5898 5899 5900 5901 5903 5906 5909 5911 5914 5916 5919 5921 5923 5924 5926 5928 5929 5931 5932 5933 5933 5934 5935 5936 5936 5937 5937 5938 5938 5938 5938 5938 5938 5938 5938 5938 5938 5938 5938 5938 5939
5845 5848 5850 5853 5857 5860 5862 5865 5868 5871 5873 5875 5876 5878 5880 5882 5884 5886 5889 5891 5893 5895 5897 5898 5899 5901 5903 5905 5907 5910 5912 5915 5917 5919 5921 5923 5924 5926 5928 5929 5930 5931 5932 5933 5933 5934 5934 5935 5935 5935 5935 5936 5936 5936 5936 5936 5936 5936 5936 5937 5937 5937 5937
5844 5846 5847 5850 5855 5857 5860 5862 5865 5868 5870 5872 5873 5875 5877 5879 5881 5884 5887 5889 5890 5893 5895 5897 5898 5900 5901 5904 5906 5908 5911 5913 5915 5917 5919 5921 5923 5924 5926 5927 5928 5929 5930 5931 5932 5932 5932 5933 5933 5933 5933 5934 5934 5934 5934 5935 5935 5935 5935 5936 5936 5936 5936
5842 5844 5846 5849 5852 5856 5858 5861 5863 5865 5867 5869 5871 5873 5875 5878 5880 5883 5885 5887 5889 5891 5893 5895 5897 5898 5900 5902 5905 5907 5909 5911 5913 5915 5917 5919 5921 5922 5923 5925 5926 5927 5928 5929 5930 5930 5930 5931 5931 5931 5931 5931 5932 5932 5933 5933 5934 5934 5934 5935 5935 5935 5936
5841 5843 5845 5848 5851 5854 5857 5859 5861 5863 5865 5867 5869 5872 5874 5877 5880 5882 5885 5886 5888 5889 5891 5893 5895 5897 5899 5901 5903 5905 5907 5909 5911 5913 5915 5917 5918 5920 5921 5922 5923 5925 5926 5926 5927 5928 5928 5928 5929 5929 5929 5929 5930 5931 5931 5932 5933 5933 5933 5934 5934 5935 5935
5839 5842 5844 5847 5849 5852 5855 5857 5859 5861 5864 5866 5868 5870 5873 5876 5879 5882 5884 5885 5887 5889 5891 5892 5894 5896 5898 5900 5901 5903 5905 5907 5909 5911 5912 5914 5916 5917 5918 5919 5921 5922 5923 5924 5924 5925 5926 5926 5926 5927 5927 5928 5928 5929 5930 5931 5931 5932 5932 5932 5933 5933 5934
5838 5841 5843 5845 5847 5850 5853 5856 5859 5861 5862 5864 5866 5869 5872 5875 5878 5880 5883 5884 5886 5888 5890 5892 5894 5895 5897 5899 5900 5901 5903 5904 5906 5908 5909 5911 5913 5914 5915 5916 5918 5920 5921 5922 5922 5922 5923 5924 5924 5924 5925 5926 5927 5928 5928 5929 5929 5930 5930 5930 5931 5931 5932
5836 5838 5840 5842 5845 5848 5851 5854 5857 5859 5860 5862 5865 5867 5870 5873 5876 5879 5882 5883 5885 5887 5889 5891 5893 5894 5896 5898 5899 5900 5901 5902 5903 5905 5907 5908 5909 5911 5912 5913 5915 5917 5918 5919 5919 5920 5920 5921 5922 5922 5923 5924 5925 5926 5926 5927 5927 5928 5928 5929 5929 5929 5930
5832 5835 5837 5840 5843 5846 5848 5851 5854 5856 5858 5861 5863 5866 5868 5871 5874 5877 5880 5881 5883 5885 5887 5889 5891 5893 5894 5896 5897 5899 5900 5900 5901 5902 5904 5905 5906 5907 5909 5910 5912 5913 5914 5915 5917 5918 5918 5918 5919 5920 5921 5922 5923 5923 5924 5925 5926 5926 5926 5927 5927 5927 5927
5830 5832 5835 5838 5841 5843 5846 5848 5851 5854 5856 5859 5861 5863 5866 5869 5871 5874 5877 5879 5881 5883 5885 5887 5889 5890 5892 5894 5895 5896 5898 5899 5899 5900 5901 5902 5903 5904 5906 5907 5908 5910 5911 5912 5914 5915 5916 5916 5917 5918 5919 5920 5921 5921 5922 5923 5924 5924 5925 5925 5925 5924 5925
5827 5829 5832 5836 5839 5842 5844 5846 5849 5852 5855 5857 5859 5861 5864 5866 5869 5871 5874 5876 5878 5880 5882 5884 5886 5888 5890 5891 5893 5894 5895 5896 5897 5898 5898 5899 5900 5902 5903 5904 5906 5907 5908 5909 5911 5912 5913 5914 5915 5915 5916 5917 5918 5919 5921 5922 5922 5922 5923 5923 5923 5922 5922
5825 5828 5830 5833 5836 5839 5842 5844 5847 5849 5852 5854 5856 5859 5862 5864 5866 5868 5871 5873 5875 5877 5879 5881 5884 5886 5888 5889 5891 5892 5893 5894 5895 5896 5896 5897 5898 5899 5900 5902 5903 5904 5905 5906 5908 5909 5910 5911 5912 5913 5914 5915 5916 5917 5918 5919 5920 5920 5921 5921 5921 5920 5920
5823 5825 5827 5830 5833 5836 5838 5841 5843 5846 5849 5852 5854 5856 5859 5861 5863 5865 5868 5870 5872 5874 5876 5879 5881 5883 5885 5887 5888 5889 5891 5891 5892 5893 5894 5895 5896 5897 5898 5899 5900 5901 5902 5904 5905 5906 5907 5908 5909 5910 5911 5912 5913 5915 5916 5917 5917 5918 5918 5918 5918 5918 5918
5820 5823 5825 5828 5830 5833 5835 5838 5840 5843 5846 5849 5851 5853 5855 5857 5860 5862 5864 5866 5869 5871 5873 5876 5878 5880 5881 5883 5885 5887 5888 5889 5890 5891 5892 5892 5894 5895 5896 5897 5898 5899 5900 5901 5902 5903 5905 5906 5907 5908 5909 5910 5911 5912 5913 5914 5914 5914 5915 5915 5915 5915 5914
5818 5821 5823 5824 5827 5830 5833 5835 5836 5839 5842 5845 5847 5849 5851 5853 5856 5858 5860 5863 5865 5867 5869 5872 5874 5875 5877 5879 5882 5884 5885 5887 5888 5889 5890 5891 5892 5893 5894 5895 5896 5897 5898 5899 5900 5901 5902 5903 5904 5905 5906 5907 5908 5909 5910 5911 5911 5911 5911 5911 5911 5911 5911
5816 5819 5820 5821 5824 5827 5830 5832 5834 5836 5838 5841 5844 5846 5848 5850 5852 5854 5857 5859 5861 5863 5865 5867 5869 5871 5873 5875 5878 5880 5882 5883 5885 5887 5888 5889 5889 5890 5891 5892 5893 5895 5896 5896 5897 5898 5899 5900 5901 5902 5903 5904 5905 5906 5907 5907 5908 5908 5908 5908 5908 5907 5907
5814 5816 5817 5819 5822 5825 5828 5830 5831 5833 5835 5838 5840 5843 5845 5847 5849 5851 5853 5855 5857 5860 5861 5863 5865 5867 5869 5871 5874 5876 5879 5880 5882 5883 5885 5886 5887 5888 5888 5890 5891 5892 5893 5894 5894 5895 5896 5897 5898 5899 5900 5901 5902 5903 5904 5904 5905 5905 5905 5904 5904 5904 5903
5810 5812 5814 5817 5820 5823 5825 5827 5829 5831 5833 5836 5838 5840 5842 5844 5846 5848 5850 5852 5855 5857 5858 5860 5862 5864 5866 5868 5870 5872 5875 5876 5878 5880 5881 5883 5884 5885 5886 5886 5887 5888 5890 5890 5891 5892 5893 5894 5895 5896 5897 5898 5899 5899 5900 5901 5901 5901 5901 5901 5900 5900 5900
5806 5808 5810 5813 5816 5819 5821 5823 5826 5829 5831 5834 5835 5837 5839 5841 5843 5846 5848 5850 5852 5854 5855 5857 5859 5861 5863 5864 5866 5868 5870 5872 5874 5876 5877 5879 5881 5882 5883 5884 5884 5885 5886 5887 5888 5889 5890 5891 5891 5892 5893 5894 5895 5896 5896 5897 5897 5897 5897 5896 5896 5896 5896
5801 5803 5806 5809 5812 5815 5817 5820 5823 5826 5828 5831 5833 5834 5836 5839 5841 5843 5845 5847 5849 5851 5852 5854 5856 5858 5860 5861 5862 5864 5866 5868 5870 5871 5873 5875 5876 5878 5879 5880 5881 5882 5883 5883 5885 5885 5886 5887 5888 5888 5889 5890 5890 5891 5891 5891 5892 5891 5891 5891 5892 5892 5892
5797 5800 5802 5805 5808 5811 5813 5816 5819 5822 5825 5828 5829 5831 5833 5836 5838 5840 5842 5844 5846 5848 5849 5851 5853 5855 5857 5858 5860 5861 5863 5864 5866 5867 5869 5871 5872 5874 5875 5876 5877 5878 5879 5880 5880 5881 5882 5883 5884 5884 5885 5885 5886 5886 5886 5886 5885 5884 5885 5886 5887 5888 5887
5795 5797 5799 5802 5805 5807 5809 5812 5816 5819 5822 5824 5826 5828 5830 5832 5835 5837 5839 5841 5843 5845 5846 5847 5849 5851 5853 5855 5856 5858 5859 5861 5862 5864 5865 5866 5868 5869 5871 5872 5872 5873 5874 5875 5876 5877 5878 5879 5879 5879 5880 5880 5881 5881 5881 5881 5879 5879 5880 5881 5881 5881 5881
5791 5793 5795 5798 5801 5804 5806 5808 5812 5815 5817 5819 5822 5824 5826 5828 5831 5834 5836 5838 5840 5841 5843 5844 5846 5848 5850 5852 5853 5854 5856 5857 5858 5860 5861 5863 5864 5865 5866 5867 5868 5869 5869 5870 5871 5873 5873 5874 5874 5875 5875 5875 5876 5876 5876 5876 5875 5875 5875 5874 5874 5874 5874
5787 5789 5791 5794 5797 5799 5802 5805 5807 5810 5813 5815 5818 5820 5822 5824 5827 5830 5832 5834 5836 5838 5840 5841 5843 5845 5847 5848 5849 5850 5852 5853 5854 5856 5857 5859 5859 5860 5861 5862 5863 5864 5865 5866 5867 5868 5868 5869 5869 5870 5870 5870 5871 5871 5871 5870 5870 5869 5869 5868 5868 5868 5867
5782 5785 5787 5790 5793 5795 5798 5801 5803 5806 5809 5811 5813 5815 5818 5820 5823 5826 5829 5831 5833 5835 5836 5838 5839 5841 5843 5844 5846 5847 5848 5849 5850 5852 5853 5854 5855 5856 5857 5858 5858 5859 5860 5861 5862 5863 5863 5864 5864 5865 5865 5865 5865 5865 5865 5864 5864 5864 5863 5862 5862 5861 5861
5777 5780 5783 5786 5789 5791 5794 5797 5799 5802 5805 5807 5809 5811 5813 5816 5819 5822 5825 5827 5828 5830 5831 5833 5835 5837 5838 5840 5841 5843 5844 5845 5846 5847 5848 5849 5850 5851 5852 5853 5853 5854 5855 5856 5857 5857 5858 5858 5858 5859 5860 5860 5860 5860 5859 5859 5858 5858 5857 5856 5855 5855 5854
5771 5775 5778 5781 5784 5787 5790 5793 5796 5798 5801 5803 5805 5807 5809 5812 5814 5817 5819 5821 5823 5824 5826 5828 5830 5832 5833 5835 5837 5838 5839 5840 5841 5842 5843 5844 5844 5845 5847 5848 5848 5849 5850 5851 5852 5852 5853 5853 5853 5854 5854 5854 5854 5853 5853 5853 5852 5852 5851 5850 5849 5848 5847